Regional Weather Roundup
Issued by NWS

Home | Current Version | Previous Version | Graphics & Text | Print | Product List | Glossary On
Versions: 1 2 3 4 5 6 7 8 9 10 11 12 13 14 15 16 17 18 19 20 21 22 23 24 25 26 27 28 29 30 31 32 33 34 35 36 37 38 39 40 41 42 43 44 45 46 47 48 49 50
000
ASUS43 KMKX 171321
RWRWI

WISCONSIN REGIONAL WEATHER ROUNDUP
NATIONAL WEATHER SERVICE MILWAUKEE/SULLIVAN WI
800 AM CDT THU AUG 17 2017

NOTE: "FAIR" INDICATES FEW OR NO CLOUDS BELOW 12,000 FEET WITH NO
SIGNIFICANT WEATHER AND/OR OBSTRUCTIONS TO VISIBILITY.

WIZ001-002-006>008-014>016-023>028-171400-
NORTHWEST WISCONSIN

CITY           SKY/WX    TMP DP  RH WIND       PRES   REMARKS
SUPERIOR ARPT  LGT RAIN  61  61 100 NE15G24   29.62S
ASHLAND        LGT RAIN  63  62  97 NE10      29.61F FOG
HAYWARD        RAIN      65  63  93 E3        29.59S FOG
SIREN          LGT RAIN  66  65  97 CALM      29.57R
CUMBERLAND     RAIN      63  63 100 SE3       29.57R
RICE LAKE      LGT RAIN  66  65  97 E3        29.58S
CHETEK         RAIN      66  66  98 E7        29.57R
LADYSMITH      CLOUDY    66  65  97 S8        29.61R FOG
EAU CLAIRE     CLOUDY    67  64  90 SE14      29.52F
MENOMONIE      RAIN      67  65  95 E10       29.51F
NEW RICHMOND   CLOUDY    65  65  99 NE6       29.53S
OSCEOLA        PTSUNNY   66  66 100 N5        29.57R
$$

WIZ003>005-009-010-017-018-171400-
NORTH CENTRAL WISCONSIN

CITY           SKY/WX    TMP DP  RH WIND       PRES   REMARKS
MANITOWISH WTR DRIZZLE   64  64 100 E5        29.64S
ARBOR VITAE    HVY RAIN  66  65  96 SE6       29.63F
WOODRUFF       HVY RAIN  66  65  96 SE6       29.63F
RHINELANDER    FOG       66  66 100 E6        29.65F VSB 1/2
EAGLE RIVER    CLOUDY    66  66 100 SE6       29.65S FOG
LAND O LAKES   CLOUDY    66  66 100 SE7       29.68F
PHILLIPS       CLOUDY    66  66 100 E6        29.60F
TOMAHAWK         N/A     66  65  97 CALM      29.63F FOG
MEDFORD        CLOUDY    65  63  93 SW12G17   29.62R
MERRILL        CLOUDY    68  68 100 SE7       29.63F FOG
$$

WIZ029-030-035-036-043>047-171400-
CENTRAL WISCONSIN

CITY           SKY/WX    TMP DP  RH WIND       PRES   REMARKS
WAUSAU         CLOUDY    70  68  93 S9        29.61F
MOSINEE        PTSUNNY   70  70 100 S9G20     29.64S
MARSHFIELD     CLOUDY    67  64  90 S12       29.62S
STEVENS POINT  MOSUNNY   69  66  92 S14       29.65S
WAUPACA        MOSUNNY   74  74  98 S10       29.66S
WAUTOMA        PTSUNNY   72  70  94 SW7       29.66F
WISC RAPIDS    CLOUDY    71  67  87 SW16      29.65S
CAMP DOUGLAS   PTSUNNY   68  64  88 SW6       29.64S
$$

WIZ011>013-019>022-031-037>040-048>050-171400-
NORTHEAST WISCONSIN

CITY           SKY/WX    TMP DP  RH WIND       PRES   REMARKS
ANTIGO         CLOUDY    68  68 100 S9G16     29.66F FOG
SHAWANO        CLOUDY    74  72  93 S5        29.65S
OCONTO         CLOUDY    72  71  96 S7        29.65F
STURGEON BAY   LGT RAIN  71  70  96 S10       29.68F
GREEN BAY      MOSUNNY   72  72 100 S9        29.66F
MANITOWOC      CLOUDY    70  67  90 SE7       29.70S
APPLETON       PTSUNNY   72  72 100 S12       29.66S
CLINTONVILLE   CLOUDY    73  72  94 S10       29.65S
OSHKOSH        PTSUNNY   73  70  90 S14       29.67S
$$

WIZ032>034-041-042-053>061-171400-
SOUTHWEST WISCONSIN

CITY           SKY/WX    TMP DP  RH WIND       PRES   REMARKS
LA CROSSE      CLOUDY    72  65  78 S14       29.59F
SPARTA         CLOUDY    67  63  89 S9        29.63F
VIROQUA        CLOUDY    66  66 100 S10G17    29.66S
BOSCOBEL       CLOUDY    70  64  81 SW6G21    29.68S
PRAIRIE DU CHI CLOUDY    68  63  83 SW12      29.68S
PLATTEVILLE    CLOUDY    68  68  99 SW14      29.73S
$$

WIZ056-057-062-063-064-067-068-171400-
SOUTH CENTRAL WISCONSIN

CITY           SKY/WX    TMP DP  RH WIND       PRES   REMARKS
REEDSBURG      CLOUDY    68  67  96 SW12G18   29.67F
BARABOO/DELLS  PTSUNNY   70  64  81 SW14G21   29.68S
LONE ROCK      CLOUDY    70  66  87 SW8       29.69S
MINERAL POINT  CLOUDY    70  68  94 SW9       29.72S
MADISON        CLOUDY    73  69  87 S9        29.69S
MIDDLETON      PTSUNNY   74  71  89 SW10      29.70S
WATERTOWN      CLOUDY    71  71 100 S12G18    29.70S
MONROE         CLOUDY    70  68  94 SW13      29.74R
JANESVILLE     CLOUDY    72  72 100 S12G17    29.73S
$$

WIZ051-052-058>065-066-070>072-171400-
SOUTHEAST WISCONSIN

CITY           SKY/WX    TMP DP  RH WIND       PRES   REMARKS
MILWAUKEE      CLOUDY    73  71  93 S12       29.73S
WAUKESHA       CLOUDY    70  68  94 S7        29.74F
MILWAUKEE/TIMM CLOUDY    72  66  83 S10       29.73S
RACINE         CLOUDY    72  71  97 S8        29.76S
KENOSHA        CLOUDY    73  69  87 S10       29.76S
FOND DU LAC    PTSUNNY   74  69  85 S10       29.68F
SHEBOYGAN      CLOUDY    73  73 100 S8        29.69F
WEST BEND      CLOUDY    70  70 100 S8        29.70F
JUNEAU         CLOUDY    71  69  95 S9        29.71S
$$

LSZ147-162-171400-
LAKE SUPERIOR

STATION/POSITION TIME  TEMP    WIND        PRES    WAVE
                       AIR SEA DIR/SP/G            HT/PER
                 (UTC) (F)     (DEG/KT/KT) (MB)    (FT/S)
W MID LAKE BUOY  1250   61 60   40/ 19/ 23 1003.6F   4/ 4
DEVILS ISLAND    1300   61      50/ 22/ 24 1003.4R
SAXON HARBOR     1240   64      50/  7/  8 1002.4F
$$

LMZ867-665-643>646-171400-
LAKE MICHIGAN

STATION/POSITION TIME  TEMP    WIND        PRES    WAVE
                       AIR SEA DIR/SP/G            HT/PER
                 (UTC) (F)     (DEG/KT/KT) (MB)    (FT/S)
S GREEN BAY BUOY 1300   72 71  180/ 16/ 19 1004.2
N MID LAKE BUOY  1250   68 67  150/ 16/ 19 1006.1F   4/ 4
NORTHPORT PIER   1300   69     150/ 12/ 21 1005.4
KEWAUNEE LAKESHO 1300   69     160/ 12/ 14 1004.6
SHEBOYGAN LAKESH 1300   71     180/ 17/ 19 1005.0F
PORT WASHINGTON  1240   73     180/  8/ 11 1006.4F
ATWATER BUOY     1209   72 71  190/ 10/ 12 1007.1
MILWAUKEE LAKESH 1250   72     190/ 11/ 13   N/A
S MID LAKE BUOY  1250   72 71  200/ 17/ 21 1007.9R   3/ 5
KENOSHA   LAKESH 1300   72     190/  7/ 12 1007.5
$$

TC  - TEMPERATURE IN CELSIUS
VSB - VISIBILITY IN STATUTE MILES
WCI - WIND CHILL INDEX
HX  - HEAT INDEX





USA.gov is the U.S. government's official web portal to all federal, state and local government web resources and services.